Flag for U.S.A. Weather past 2 weeks in Sioux Falls, South Dakota, U.S.A.

Now
37 °F

Light rain. Low clouds.


Feels Like: 29 °F
Forecast: 30 / 35 °F
Wind: 12 mph from Southeast

Location: Foss Field

Current Time: Dec 22, 2014 at 9:52:40 PM

Latest Report: Dec 22, 2014 at 8:56 PM


Visibility: 9 mi

Pressure: 29.50 "Hg

Humidity: 93%

Dew point: 35 °F

Location of Sioux FallsLocation

Historic Weather in Sioux Falls — Graph

°F

Sioux Falls temperature yesterday

Maximum temperature yesterday: 40 °F (at 11:56 PM)
Minimum temperature yesterday: 30 °F (at 12:03 AM)
Average temperature yesterday: 34 °F

Past Weeks' High & Low Weather Summary

 TemperatureHumidityPressure
High55 °F (Dec 14, 11:56 AM)100% (Dec 20, 10:56 PM)30.50 "Hg (Dec 20, 10:56 PM)
Low-1 °F (Dec 17, 7:56 AM)65% (Dec 17, 2:56 PM)29.42 "Hg (Dec 22, 1:56 PM)
Average31 °F88%30.09 "Hg
* Reported Dec 7 7:56 PM — Dec 22 7:56 PM, Sioux Falls, Weather by CustomWeather, © 2014

Note: Actual official high and low records may vary slightly from our data, if they occured in-between our weather recording intervals... More about our weather records

Advertising

Sioux Falls weather history for previous 24 hours

 ConditionsComfort  
Time TempWeatherWind HumidityBarometerVisibility
7:56 PM
Dec 22
36 °FLight rain. Fog.3 mph97%29.49 "Hg3 mi
6:56 PM36 °FDrizzle. Low clouds.3 mph97%29.48 "Hg8 mi
5:56 PM36 °FLight rain. Fog.7 mph92%29.46 "Hg6 mi
4:56 PM37 °FLight rain. Fog.6 mph96%29.46 "Hg5 mi
3:56 PM38 °FLight rain. Fog.7 mph93%29.44 "Hg1 mi
2:56 PM40 °FDrizzle. Fog.No wind97%29.42 "Hg1 mi
1:56 PM39 °FDrizzle. Fog.3 mph93%29.42 "Hg1 mi
12:56 PM39 °FLow clouds.No wind96%29.43 "Hg7 mi
11:56 AM38 °FLight rain. Fog.5 mph97%29.45 "Hg4 mi
10:56 AM40 °FLight rain. Fog.6 mph100%29.47 "Hg4 mi
9:56 AM40 °FLight rain. Fog.7 mph100%29.48 "Hg4 mi
8:56 AM40 °FLight rain. Fog.9 mph97%29.47 "Hg6 mi
7:56 AM40 °FLight rain. Low clouds.10 mph97%29.48 "Hg7 mi
6:56 AM40 °FLight rain. Mostly cloudy.10 mph97%29.49 "Hg8 mi
5:56 AM40 °FLight rain. Low clouds.12 mph97%29.49 "Hg9 mi
4:56 AM40 °FLight rain. Fog.10 mph97%29.50 "Hg5 mi
3:56 AM40 °FLight rain. Low clouds.14 mph97%29.52 "Hg7 mi
2:56 AM40 °FLight rain. Fog.16 mph97%29.54 "Hg6 mi
1:56 AM40 °FLight rain. Low clouds.15 mph93%29.54 "Hg7 mi
12:56 AM40 °FLight rain. Low clouds.18 mph93%29.56 "Hg9 mi
11:56 PM
Dec 21
40 °FLow clouds.21 mph89%29.57 "Hg10 mi
10:56 PM39 °FLow clouds.18 mph93%29.57 "Hg10 mi
9:56 PM39 °FMostly cloudy.21 mph93%29.58 "Hg10 mi
Weather by CustomWeather, © 2014

See weather overviewHow to use our weather pages